Year,Month,Day,Hour,Minute,Value (Times are PST for temperature in C)
2015,07,05,00,00,20.50
2015,07,05,00,01,20.50
2015,07,05,00,02,20.40
2015,07,05,00,03,20.40
2015,07,05,00,04,20.40
2015,07,05,00,05,20.40
2015,07,05,00,06,20.40
2015,07,05,00,07,20.30
2015,07,05,00,08,20.30
2015,07,05,00,09,20.30
2015,07,05,00,10,20.30
2015,07,05,00,11,20.30
2015,07,05,00,12,20.30
2015,07,05,00,13,20.30
2015,07,05,00,14,20.30
2015,07,05,00,15,20.20
2015,07,05,00,16,20.20
2015,07,05,00,17,20.20
2015,07,05,00,18,20.20
2015,07,05,00,19,20.20
2015,07,05,00,20,20.10
2015,07,05,00,21,20.10
2015,07,05,00,22,20.10
2015,07,05,00,23,20.10
2015,07,05,00,24,20.10
2015,07,05,00,25,20.10
2015,07,05,00,26,20.00
2015,07,05,00,27,20.00
2015,07,05,00,28,20.00
2015,07,05,00,29,20.00
2015,07,05,00,30,19.90
2015,07,05,00,31,19.90
2015,07,05,00,32,19.90
2015,07,05,00,33,19.90
2015,07,05,00,34,19.90
2015,07,05,00,35,19.90
2015,07,05,00,36,19.90
2015,07,05,00,37,19.80
2015,07,05,00,38,19.80
2015,07,05,00,39,19.80
2015,07,05,00,40,19.80
2015,07,05,00,41,19.80
2015,07,05,00,42,19.80
2015,07,05,00,43,19.80
2015,07,05,00,44,19.70
2015,07,05,00,45,19.70
2015,07,05,00,46,19.70
2015,07,05,00,47,19.70
2015,07,05,00,48,19.70
2015,07,05,00,49,19.60
2015,07,05,00,50,19.60
2015,07,05,00,51,19.60
2015,07,05,00,52,19.60
2015,07,05,00,53,19.60
2015,07,05,00,54,19.60
2015,07,05,00,55,19.50
2015,07,05,00,56,19.50
2015,07,05,00,57,19.50
2015,07,05,00,58,19.50
2015,07,05,00,59,19.40
2015,07,05,01,00,19.40
2015,07,05,01,01,19.40
2015,07,05,01,02,19.40
2015,07,05,01,03,19.40
2015,07,05,01,04,19.40
2015,07,05,01,05,19.30
2015,07,05,01,06,19.30
2015,07,05,01,07,19.30
2015,07,05,01,08,19.30
2015,07,05,01,09,19.30
2015,07,05,01,10,19.30
2015,07,05,01,11,19.20
2015,07,05,01,12,19.20
2015,07,05,01,13,19.20
2015,07,05,01,14,19.20
2015,07,05,01,15,19.20
2015,07,05,01,16,19.20
2015,07,05,01,17,19.20
2015,07,05,01,18,19.10
2015,07,05,01,19,19.10
2015,07,05,01,20,19.10
2015,07,05,01,21,19.10
2015,07,05,01,22,19.10
2015,07,05,01,23,19.10
2015,07,05,01,24,19.10
2015,07,05,01,25,19.00
2015,07,05,01,26,19.00
2015,07,05,01,27,19.00
2015,07,05,01,28,19.00
2015,07,05,01,29,18.90
2015,07,05,01,30,18.90
2015,07,05,01,31,18.90
2015,07,05,01,32,18.90
2015,07,05,01,33,18.90
2015,07,05,01,34,18.90
2015,07,05,01,35,18.90
2015,07,05,01,36,18.80
2015,07,05,01,37,18.80
2015,07,05,01,38,18.80
2015,07,05,01,39,18.80
2015,07,05,01,40,18.80
2015,07,05,01,41,18.80
2015,07,05,01,42,18.80
2015,07,05,01,43,18.80
2015,07,05,01,44,18.80
2015,07,05,01,45,18.80
2015,07,05,01,46,18.80
2015,07,05,01,47,18.80
2015,07,05,01,48,18.70
2015,07,05,01,49,18.70
2015,07,05,01,50,18.70
2015,07,05,01,51,18.70
2015,07,05,01,52,18.70
2015,07,05,01,53,18.70
2015,07,05,01,54,18.70
2015,07,05,01,55,18.70
2015,07,05,01,56,18.70
2015,07,05,01,57,18.70
2015,07,05,01,58,18.60
2015,07,05,01,59,18.60
2015,07,05,02,00,18.60
2015,07,05,02,01,18.60
2015,07,05,02,02,18.60
2015,07,05,02,03,18.60
2015,07,05,02,04,18.60
2015,07,05,02,05,18.60
2015,07,05,02,06,18.60
2015,07,05,02,07,18.50
2015,07,05,02,08,18.50
2015,07,05,02,09,18.50
2015,07,05,02,10,18.50
2015,07,05,02,11,18.40
2015,07,05,02,12,18.40
2015,07,05,02,13,18.40
2015,07,05,02,14,18.40
2015,07,05,02,15,18.40
2015,07,05,02,16,18.40
2015,07,05,02,17,18.40
2015,07,05,02,18,18.40
2015,07,05,02,19,18.40
2015,07,05,02,20,18.40
2015,07,05,02,21,18.30
2015,07,05,02,22,18.30
2015,07,05,02,23,18.30
2015,07,05,02,24,18.30
2015,07,05,02,25,18.30
2015,07,05,02,26,18.30
2015,07,05,02,27,18.30
2015,07,05,02,28,18.30
2015,07,05,02,29,18.30
2015,07,05,02,30,18.30
2015,07,05,02,31,18.30
2015,07,05,02,32,18.30
2015,07,05,02,33,18.30
2015,07,05,02,34,18.30
2015,07,05,02,35,18.30
2015,07,05,02,36,18.30
2015,07,05,02,37,18.30
2015,07,05,02,38,18.30
2015,07,05,02,39,18.30
2015,07,05,02,40,18.30
2015,07,05,02,41,18.30
2015,07,05,02,42,18.30
2015,07,05,02,43,18.30
2015,07,05,02,44,18.30
2015,07,05,02,45,18.30
2015,07,05,02,46,18.30
2015,07,05,02,47,18.30
2015,07,05,02,48,18.30
2015,07,05,02,49,18.30
2015,07,05,02,50,18.30
2015,07,05,02,51,18.30
2015,07,05,02,52,18.30
2015,07,05,02,53,18.30
2015,07,05,02,54,18.30
2015,07,05,02,55,18.30
2015,07,05,02,56,18.30
2015,07,05,02,57,18.30
2015,07,05,02,58,18.30
2015,07,05,02,59,18.30
2015,07,05,03,00,18.30
2015,07,05,03,01,18.30
2015,07,05,03,02,18.30
2015,07,05,03,03,18.20
2015,07,05,03,04,18.20
2015,07,05,03,05,18.20
2015,07,05,03,06,18.20
2015,07,05,03,07,18.20
2015,07,05,03,08,18.20
2015,07,05,03,09,18.20
2015,07,05,03,10,18.20
2015,07,05,03,11,18.20
2015,07,05,03,12,18.20
2015,07,05,03,13,18.20
2015,07,05,03,14,18.20
2015,07,05,03,15,18.20
2015,07,05,03,16,18.20
2015,07,05,03,17,18.10
2015,07,05,03,18,18.10
2015,07,05,03,19,18.10
2015,07,05,03,20,18.10
2015,07,05,03,21,18.10
2015,07,05,03,22,18.10
2015,07,05,03,23,18.10
2015,07,05,03,24,18.10
2015,07,05,03,25,18.10
2015,07,05,03,26,18.10
2015,07,05,03,27,18.10
2015,07,05,03,28,18.10
2015,07,05,03,29,18.10
2015,07,05,03,30,18.10
2015,07,05,03,31,18.10
2015,07,05,03,32,18.00
2015,07,05,03,33,18.00
2015,07,05,03,34,18.00
2015,07,05,03,35,18.00
2015,07,05,03,36,18.00
2015,07,05,03,37,18.00
2015,07,05,03,38,18.00
2015,07,05,03,39,18.00
2015,07,05,03,40,18.00
2015,07,05,03,41,18.00
2015,07,05,03,42,18.00
2015,07,05,03,43,18.10
2015,07,05,03,44,18.10
2015,07,05,03,45,18.10
2015,07,05,03,46,18.10
2015,07,05,03,47,18.10
2015,07,05,03,48,18.10
2015,07,05,03,49,18.10
2015,07,05,03,50,18.10
2015,07,05,03,51,18.10
2015,07,05,03,52,18.10
2015,07,05,03,53,18.10
2015,07,05,03,54,18.10
2015,07,05,03,55,18.10
2015,07,05,03,56,18.10
2015,07,05,03,57,18.10
2015,07,05,03,58,18.10
2015,07,05,03,59,18.10
2015,07,05,04,00,18.10
2015,07,05,04,01,18.10
2015,07,05,04,02,18.10
2015,07,05,04,03,18.10
2015,07,05,04,04,18.10
2015,07,05,04,05,18.10
2015,07,05,04,06,18.10
2015,07,05,04,07,18.10
2015,07,05,04,08,18.10
2015,07,05,04,09,18.10
2015,07,05,04,10,18.10
2015,07,05,04,11,18.10
2015,07,05,04,12,18.10
2015,07,05,04,13,18.10
2015,07,05,04,14,18.10
2015,07,05,04,15,18.10
2015,07,05,04,16,18.10
2015,07,05,04,17,18.10
2015,07,05,04,18,18.20
2015,07,05,04,19,18.20
2015,07,05,04,20,18.20
2015,07,05,04,21,18.20
2015,07,05,04,22,18.20
2015,07,05,04,23,18.20
2015,07,05,04,24,18.20
2015,07,05,04,25,18.20
2015,07,05,04,26,18.20
2015,07,05,04,27,18.20
2015,07,05,04,28,18.20
2015,07,05,04,29,18.20
2015,07,05,04,30,18.20
2015,07,05,04,31,18.20
2015,07,05,04,32,18.20
2015,07,05,04,33,18.20
2015,07,05,04,34,18.20
2015,07,05,04,35,18.20
2015,07,05,04,36,18.20
2015,07,05,04,37,18.20
2015,07,05,04,38,18.20
2015,07,05,04,39,18.20
2015,07,05,04,40,18.30
2015,07,05,04,41,18.30
2015,07,05,04,42,18.30
2015,07,05,04,43,18.30
2015,07,05,04,44,18.30
2015,07,05,04,45,18.30
2015,07,05,04,46,18.30
2015,07,05,04,47,18.30
2015,07,05,04,48,18.30
2015,07,05,04,49,18.30
2015,07,05,04,50,18.40
2015,07,05,04,51,18.40
2015,07,05,04,52,18.40
2015,07,05,04,53,18.40
2015,07,05,04,54,18.40
2015,07,05,04,55,18.40
2015,07,05,04,56,18.40
2015,07,05,04,57,18.40
2015,07,05,04,58,18.50
2015,07,05,04,59,18.50
2015,07,05,05,00,18.50
2015,07,05,05,01,18.50
2015,07,05,05,02,18.50
2015,07,05,05,03,18.50
2015,07,05,05,04,18.50
2015,07,05,05,05,18.60
2015,07,05,05,06,18.60
2015,07,05,05,07,18.60
2015,07,05,05,08,18.60
2015,07,05,05,09,18.60
2015,07,05,05,10,18.70
2015,07,05,05,11,18.70
2015,07,05,05,12,18.70
2015,07,05,05,13,18.70
2015,07,05,05,14,18.70
2015,07,05,05,15,18.70
2015,07,05,05,16,18.70
2015,07,05,05,17,18.80
2015,07,05,05,18,18.80
2015,07,05,05,19,18.80
2015,07,05,05,20,18.80
2015,07,05,05,21,18.80
2015,07,05,05,22,18.80
2015,07,05,05,23,18.80
2015,07,05,05,24,18.80
2015,07,05,05,25,18.80
2015,07,05,05,26,18.90
2015,07,05,05,27,18.90
2015,07,05,05,28,18.90
2015,07,05,05,29,18.90
2015,07,05,05,30,18.90
2015,07,05,05,31,18.90
2015,07,05,05,32,18.90
2015,07,05,05,33,18.90
2015,07,05,05,34,18.90
2015,07,05,05,35,18.90
2015,07,05,05,36,18.90
2015,07,05,05,37,18.90
2015,07,05,05,38,18.90
2015,07,05,05,39,18.90
2015,07,05,05,40,18.90
2015,07,05,05,41,18.90
2015,07,05,05,42,18.90
2015,07,05,05,43,18.90
2015,07,05,05,44,18.90
2015,07,05,05,45,18.90
2015,07,05,05,46,18.90
2015,07,05,05,47,18.90
2015,07,05,05,48,18.90
2015,07,05,05,49,18.90
2015,07,05,05,50,18.90
2015,07,05,05,51,18.90
2015,07,05,05,52,18.90
2015,07,05,05,53,18.90
2015,07,05,05,54,18.80
2015,07,05,05,55,18.80
2015,07,05,05,56,18.80
2015,07,05,05,57,18.80
2015,07,05,05,58,18.80
2015,07,05,05,59,18.80
2015,07,05,06,00,18.80
2015,07,05,06,01,18.80
2015,07,05,06,02,18.80
2015,07,05,06,03,18.80
2015,07,05,06,04,18.80
2015,07,05,06,05,18.90
2015,07,05,06,06,18.90
2015,07,05,06,07,18.90
2015,07,05,06,08,18.90
2015,07,05,06,09,18.90
2015,07,05,06,10,18.90
2015,07,05,06,11,18.90
2015,07,05,06,12,18.90
2015,07,05,06,13,18.90
2015,07,05,06,14,18.90
2015,07,05,06,15,18.90
2015,07,05,06,16,19.00
2015,07,05,06,17,19.00
2015,07,05,06,18,19.00
2015,07,05,06,19,19.00
2015,07,05,06,20,19.10
2015,07,05,06,21,19.10
2015,07,05,06,22,19.10
2015,07,05,06,23,19.10
2015,07,05,06,24,19.10
2015,07,05,06,25,19.10
2015,07,05,06,26,19.10
2015,07,05,06,27,19.10
2015,07,05,06,28,19.10
2015,07,05,06,29,19.20
2015,07,05,06,30,19.20
2015,07,05,06,31,19.20
2015,07,05,06,32,19.20
2015,07,05,06,33,19.20
2015,07,05,06,34,19.30
2015,07,05,06,35,19.30
2015,07,05,06,36,19.30
2015,07,05,06,37,19.30
2015,07,05,06,38,19.40
2015,07,05,06,39,19.40
2015,07,05,06,40,19.40
2015,07,05,06,41,19.40
2015,07,05,06,42,19.40
2015,07,05,06,43,19.50
2015,07,05,06,44,19.50
2015,07,05,06,45,19.50
2015,07,05,06,46,19.60
2015,07,05,06,47,19.60
2015,07,05,06,48,19.60
2015,07,05,06,49,19.70
2015,07,05,06,50,19.70
2015,07,05,06,51,19.70
2015,07,05,06,52,19.70
2015,07,05,06,53,19.70
2015,07,05,06,54,19.80
2015,07,05,06,55,19.80
2015,07,05,06,56,19.80
2015,07,05,06,57,19.80
2015,07,05,06,58,19.90
2015,07,05,06,59,19.90
2015,07,05,07,00,19.90
2015,07,05,07,01,19.90
2015,07,05,07,02,19.90
2015,07,05,07,03,20.00
2015,07,05,07,04,20.00
2015,07,05,07,05,20.00
2015,07,05,07,06,20.00
2015,07,05,07,07,20.10
2015,07,05,07,08,20.10
2015,07,05,07,09,20.10
2015,07,05,07,10,20.10
2015,07,05,07,11,20.10
2015,07,05,07,12,20.10
2015,07,05,07,13,20.10
2015,07,05,07,14,20.10
2015,07,05,07,15,20.10
2015,07,05,07,16,20.10
2015,07,05,07,17,20.10
2015,07,05,07,18,20.10
2015,07,05,07,19,20.10
2015,07,05,07,20,20.10
2015,07,05,07,21,20.10
2015,07,05,07,22,20.10
2015,07,05,07,23,20.10
2015,07,05,07,24,20.10
2015,07,05,07,25,20.10
2015,07,05,07,26,20.10
2015,07,05,07,27,20.10
2015,07,05,07,28,20.10
2015,07,05,07,29,20.10
2015,07,05,07,30,20.10
2015,07,05,07,31,20.10
2015,07,05,07,32,20.10
2015,07,05,07,33,20.10
2015,07,05,07,34,20.10
2015,07,05,07,35,20.20
2015,07,05,07,36,20.20
2015,07,05,07,37,20.20
2015,07,05,07,38,20.20
2015,07,05,07,39,20.20
2015,07,05,07,40,20.20
2015,07,05,07,41,20.20
2015,07,05,07,42,20.20
2015,07,05,07,43,20.20
2015,07,05,07,44,20.20
2015,07,05,07,45,20.20
2015,07,05,07,46,20.20
2015,07,05,07,47,20.20
2015,07,05,07,48,20.30
2015,07,05,07,49,20.30
2015,07,05,07,50,20.30
2015,07,05,07,51,20.30
2015,07,05,07,52,20.30
2015,07,05,07,53,20.30
2015,07,05,07,54,20.40
2015,07,05,07,55,20.40
2015,07,05,07,56,20.40
2015,07,05,07,57,20.40
2015,07,05,07,58,20.40
2015,07,05,07,59,20.50
2015,07,05,08,00,20.50
2015,07,05,08,01,20.60
2015,07,05,08,02,20.60
2015,07,05,08,03,20.70
2015,07,05,08,04,20.70
2015,07,05,08,05,20.80
2015,07,05,08,06,20.90
2015,07,05,08,07,20.90
2015,07,05,08,08,21.00
2015,07,05,08,09,21.00
2015,07,05,08,10,21.10
2015,07,05,08,11,21.20
2015,07,05,08,12,21.30
2015,07,05,08,13,21.30
2015,07,05,08,14,21.40
2015,07,05,08,15,21.50
2015,07,05,08,16,21.60
2015,07,05,08,17,21.60
2015,07,05,08,18,21.70
2015,07,05,08,19,21.80
2015,07,05,08,20,21.90
2015,07,05,08,21,22.00
2015,07,05,08,22,22.00
2015,07,05,08,23,22.10
2015,07,05,08,24,22.20
2015,07,05,08,25,22.30
2015,07,05,08,26,22.40
2015,07,05,08,27,22.50
2015,07,05,08,28,22.60
2015,07,05,08,29,22.70
2015,07,05,08,30,22.80
2015,07,05,08,31,22.90
2015,07,05,08,32,23.00
2015,07,05,08,33,23.10
2015,07,05,08,34,23.20
2015,07,05,08,35,23.30
2015,07,05,08,36,23.40
2015,07,05,08,37,23.50
2015,07,05,08,38,23.60
2015,07,05,08,39,23.70
2015,07,05,08,40,23.80
2015,07,05,08,41,24.00
2015,07,05,08,42,24.10
2015,07,05,08,43,24.20
2015,07,05,08,44,24.30
2015,07,05,08,45,24.50
2015,07,05,08,46,24.60
2015,07,05,08,47,24.80
2015,07,05,08,48,24.90
2015,07,05,08,49,25.10
2015,07,05,08,50,25.20
2015,07,05,08,51,25.30
2015,07,05,08,52,25.40
2015,07,05,08,53,25.60
2015,07,05,08,54,25.70
2015,07,05,08,55,25.90
2015,07,05,08,56,26.00
2015,07,05,08,57,26.10
2015,07,05,08,58,26.20
2015,07,05,08,59,26.40
2015,07,05,09,00,26.50
2015,07,05,09,01,26.60
2015,07,05,09,02,26.70
2015,07,05,09,03,26.90
2015,07,05,09,04,27.00
2015,07,05,09,05,27.10
2015,07,05,09,06,27.20
2015,07,05,09,07,27.30
2015,07,05,09,08,27.40
2015,07,05,09,09,27.50
2015,07,05,09,10,27.60
2015,07,05,09,11,27.70
2015,07,05,09,12,27.80
2015,07,05,09,13,27.90
2015,07,05,09,14,28.00
2015,07,05,09,15,28.00
2015,07,05,09,16,28.10
2015,07,05,09,17,28.20
2015,07,05,09,18,28.20
2015,07,05,09,19,28.30
2015,07,05,09,20,28.30
2015,07,05,09,21,28.40
2015,07,05,09,22,28.50
2015,07,05,09,23,28.50
2015,07,05,09,24,28.60
2015,07,05,09,25,28.70
2015,07,05,09,26,28.70
2015,07,05,09,27,28.80
2015,07,05,09,28,28.80
2015,07,05,09,29,28.90
2015,07,05,09,30,29.00
2015,07,05,09,31,29.10
2015,07,05,09,32,29.10
2015,07,05,09,33,29.20
2015,07,05,09,34,29.20
2015,07,05,09,35,29.30
2015,07,05,09,36,29.30
2015,07,05,09,37,29.40
2015,07,05,09,38,29.40
2015,07,05,09,39,29.50
2015,07,05,09,40,29.50
2015,07,05,09,41,29.60
2015,07,05,09,42,29.60
2015,07,05,09,43,29.70
2015,07,05,09,44,29.70
2015,07,05,09,45,29.80
2015,07,05,09,46,29.80
2015,07,05,09,47,29.90
2015,07,05,09,48,29.90
2015,07,05,09,49,29.90
2015,07,05,09,50,29.80
2015,07,05,09,51,29.80
2015,07,05,09,52,29.80
2015,07,05,09,53,29.80
2015,07,05,09,54,29.70
2015,07,05,09,55,29.70
2015,07,05,09,56,29.80
2015,07,05,09,57,29.80
2015,07,05,09,58,29.80
2015,07,05,09,59,29.80
2015,07,05,10,00,29.80
2015,07,05,10,01,29.80
2015,07,05,10,02,29.80
2015,07,05,10,03,29.80
2015,07,05,10,04,29.70
2015,07,05,10,05,29.80
2015,07,05,10,06,29.90
2015,07,05,10,07,30.00
2015,07,05,10,08,30.10
2015,07,05,10,09,30.10
2015,07,05,10,10,30.20
2015,07,05,10,11,30.20
2015,07,05,10,12,30.20
2015,07,05,10,13,30.30
2015,07,05,10,14,30.40
2015,07,05,10,15,30.50
2015,07,05,10,16,30.60
2015,07,05,10,17,30.60
2015,07,05,10,18,30.60
2015,07,05,10,19,30.70
2015,07,05,10,20,30.80
2015,07,05,10,21,30.80
2015,07,05,10,22,30.80
2015,07,05,10,23,30.80
2015,07,05,10,24,30.80
2015,07,05,10,25,30.70
2015,07,05,10,26,30.60
2015,07,05,10,27,30.50
2015,07,05,10,28,30.40
2015,07,05,10,29,30.40
2015,07,05,10,30,30.30
2015,07,05,10,31,30.30
2015,07,05,10,32,30.30
2015,07,05,10,33,30.20
2015,07,05,10,34,30.20
2015,07,05,10,35,30.00
2015,07,05,10,36,30.00
2015,07,05,10,37,30.00
2015,07,05,10,38,29.90
2015,07,05,10,39,29.90
2015,07,05,10,40,29.90
2015,07,05,10,41,30.00
2015,07,05,10,42,30.00
2015,07,05,10,43,30.10
2015,07,05,10,44,30.10
2015,07,05,10,45,30.10
2015,07,05,10,46,30.10
2015,07,05,10,47,30.00
2015,07,05,10,48,30.00
2015,07,05,10,49,29.90
2015,07,05,10,50,29.80
2015,07,05,10,51,29.80
2015,07,05,10,52,29.80
2015,07,05,10,53,29.80
2015,07,05,10,54,29.80
2015,07,05,10,55,29.80
2015,07,05,10,56,29.80
2015,07,05,10,57,29.80
2015,07,05,10,58,29.80
2015,07,05,10,59,29.80
2015,07,05,11,00,29.80
2015,07,05,11,01,29.90
2015,07,05,11,02,29.90
2015,07,05,11,03,29.90
2015,07,05,11,04,29.90
2015,07,05,11,05,29.90
2015,07,05,11,06,29.90
2015,07,05,11,07,29.90
2015,07,05,11,08,29.80
2015,07,05,11,09,29.80
2015,07,05,11,10,29.80
2015,07,05,11,11,29.80
2015,07,05,11,12,29.80
2015,07,05,11,13,29.80
2015,07,05,11,14,29.80
2015,07,05,11,15,29.80
2015,07,05,11,16,29.80
2015,07,05,11,17,29.80
2015,07,05,11,18,29.80
2015,07,05,11,19,29.80
2015,07,05,11,20,29.90
2015,07,05,11,21,29.90
2015,07,05,11,22,30.00
2015,07,05,11,23,30.10
2015,07,05,11,24,30.10
2015,07,05,11,25,30.10
2015,07,05,11,26,30.20
2015,07,05,11,27,30.20
2015,07,05,11,28,30.30
2015,07,05,11,29,30.40
2015,07,05,11,30,30.40
2015,07,05,11,31,30.50
2015,07,05,11,32,30.50
2015,07,05,11,33,30.50
2015,07,05,11,34,30.60
2015,07,05,11,35,30.60
2015,07,05,11,36,30.60
2015,07,05,11,37,30.60
2015,07,05,11,38,30.60
2015,07,05,11,39,30.70
2015,07,05,11,40,30.70
2015,07,05,11,41,30.70
2015,07,05,11,42,30.80
2015,07,05,11,43,30.80
2015,07,05,11,44,30.80
2015,07,05,11,45,30.90
2015,07,05,11,46,30.90
2015,07,05,11,47,30.90
2015,07,05,11,48,30.90
2015,07,05,11,49,30.90
2015,07,05,11,50,31.00
2015,07,05,11,51,31.10
2015,07,05,11,52,31.20
2015,07,05,11,53,31.20
2015,07,05,11,54,31.20
2015,07,05,11,55,31.20
2015,07,05,11,56,31.30
2015,07,05,11,57,31.30
2015,07,05,11,58,31.30
2015,07,05,11,59,31.20
2015,07,05,12,00,31.20
2015,07,05,12,01,31.20
2015,07,05,12,02,31.20
2015,07,05,12,03,31.30
2015,07,05,12,04,31.30
2015,07,05,12,05,31.30
2015,07,05,12,06,31.30
2015,07,05,12,07,31.40
2015,07,05,12,08,31.50
2015,07,05,12,09,31.50
2015,07,05,12,10,31.60
2015,07,05,12,11,31.70
2015,07,05,12,12,31.80
2015,07,05,12,13,31.90
2015,07,05,12,14,32.00
2015,07,05,12,15,32.00
2015,07,05,12,16,32.10
2015,07,05,12,17,32.10
2015,07,05,12,18,32.10
2015,07,05,12,19,32.10
2015,07,05,12,20,32.20
2015,07,05,12,21,32.20
2015,07,05,12,22,32.20
2015,07,05,12,23,32.20
2015,07,05,12,24,32.20
2015,07,05,12,25,32.20
2015,07,05,12,26,32.20
2015,07,05,12,27,32.30
2015,07,05,12,28,32.30
2015,07,05,12,29,32.40
2015,07,05,12,30,32.40
2015,07,05,12,31,32.40
2015,07,05,12,32,32.40
2015,07,05,12,33,32.40
2015,07,05,12,34,32.40
2015,07,05,12,35,32.50
2015,07,05,12,36,32.60
2015,07,05,12,37,32.70
2015,07,05,12,38,32.70
2015,07,05,12,39,32.70
2015,07,05,12,40,32.80
2015,07,05,12,41,32.80
2015,07,05,12,42,32.90
2015,07,05,12,43,33.10
2015,07,05,12,44,33.20
2015,07,05,12,45,33.40
2015,07,05,12,46,33.50
2015,07,05,12,47,33.60
2015,07,05,12,48,33.70
2015,07,05,12,49,33.80
2015,07,05,12,50,33.80
2015,07,05,12,51,33.90
2015,07,05,12,52,33.90
2015,07,05,12,53,34.00
2015,07,05,12,54,34.10
2015,07,05,12,55,34.20
2015,07,05,12,56,34.30
2015,07,05,12,57,34.30
2015,07,05,12,58,34.30
2015,07,05,12,59,34.30
2015,07,05,13,00,34.50
2015,07,05,13,01,34.60
2015,07,05,13,02,34.80
2015,07,05,13,03,34.80
2015,07,05,13,04,34.80
2015,07,05,13,05,34.80
2015,07,05,13,06,34.80
2015,07,05,13,07,34.80
2015,07,05,13,08,34.90
2015,07,05,13,09,34.90
2015,07,05,13,10,34.80
2015,07,05,13,11,34.80
2015,07,05,13,12,34.80
2015,07,05,13,13,34.90
2015,07,05,13,14,34.90
2015,07,05,13,15,34.90
2015,07,05,13,16,35.00
2015,07,05,13,17,35.00
2015,07,05,13,18,35.00
2015,07,05,13,19,35.10
2015,07,05,13,20,35.10
2015,07,05,13,21,35.10
2015,07,05,13,22,35.10
2015,07,05,13,23,35.10
2015,07,05,13,24,35.10
2015,07,05,13,25,35.00
2015,07,05,13,26,35.00
2015,07,05,13,27,34.90
2015,07,05,13,28,34.90
2015,07,05,13,29,34.90
2015,07,05,13,30,34.90
2015,07,05,13,31,34.90
2015,07,05,13,32,34.90
2015,07,05,13,33,34.80
2015,07,05,13,34,34.80
2015,07,05,13,35,34.70
2015,07,05,13,36,34.70
2015,07,05,13,37,34.60
2015,07,05,13,38,34.60
2015,07,05,13,39,34.60
2015,07,05,13,40,34.60
2015,07,05,13,41,34.50
2015,07,05,13,42,34.50
2015,07,05,13,43,34.50
2015,07,05,13,44,34.50
2015,07,05,13,45,34.50
2015,07,05,13,46,34.50
2015,07,05,13,47,34.60
2015,07,05,13,48,34.80
2015,07,05,13,49,34.90
2015,07,05,13,50,35.00
2015,07,05,13,51,35.00
2015,07,05,13,52,34.90
2015,07,05,13,53,34.90
2015,07,05,13,54,34.80
2015,07,05,13,55,34.70
2015,07,05,13,56,34.70
2015,07,05,13,57,34.60
2015,07,05,13,58,34.70
2015,07,05,13,59,34.70
2015,07,05,14,00,34.70
2015,07,05,14,01,34.70
2015,07,05,14,02,34.70
2015,07,05,14,03,34.80
2015,07,05,14,04,34.80
2015,07,05,14,05,34.90
2015,07,05,14,06,35.00
2015,07,05,14,07,35.10
2015,07,05,14,08,35.20
2015,07,05,14,09,35.30
2015,07,05,14,10,35.30
2015,07,05,14,11,35.30
2015,07,05,14,12,35.40
2015,07,05,14,13,35.40
2015,07,05,14,14,35.50
2015,07,05,14,15,35.40
2015,07,05,14,16,35.40
2015,07,05,14,17,35.40
2015,07,05,14,18,35.30
2015,07,05,14,19,35.30
2015,07,05,14,20,35.30
2015,07,05,14,21,35.30
2015,07,05,14,22,35.40
2015,07,05,14,23,35.40
2015,07,05,14,24,35.40
2015,07,05,14,25,35.30
2015,07,05,14,26,35.20
2015,07,05,14,27,35.20
2015,07,05,14,28,35.10
2015,07,05,14,29,35.10
2015,07,05,14,30,35.10
2015,07,05,14,31,35.10
2015,07,05,14,32,35.10
2015,07,05,14,33,35.10
2015,07,05,14,34,35.10
2015,07,05,14,35,35.10
2015,07,05,14,36,35.10
2015,07,05,14,37,35.10
2015,07,05,14,38,35.10
2015,07,05,14,39,35.00
2015,07,05,14,40,34.90
2015,07,05,14,41,34.80
2015,07,05,14,42,34.60
2015,07,05,14,43,34.50
2015,07,05,14,44,34.30
2015,07,05,14,45,34.20
2015,07,05,14,46,34.10
2015,07,05,14,47,34.10
2015,07,05,14,48,34.10
2015,07,05,14,49,34.00
2015,07,05,14,50,34.00
2015,07,05,14,51,34.10
2015,07,05,14,52,34.10
2015,07,05,14,53,34.10
2015,07,05,14,54,34.20
2015,07,05,14,55,34.20
2015,07,05,14,56,34.20
2015,07,05,14,57,34.20
2015,07,05,14,58,34.30
2015,07,05,14,59,34.30
2015,07,05,15,00,34.30
2015,07,05,15,01,34.30
2015,07,05,15,02,34.30
2015,07,05,15,03,34.30
2015,07,05,15,04,34.30
2015,07,05,15,05,34.30
2015,07,05,15,06,34.30
2015,07,05,15,07,34.20
2015,07,05,15,08,34.20
2015,07,05,15,09,34.20
2015,07,05,15,10,34.20
2015,07,05,15,11,34.20
2015,07,05,15,12,34.30
2015,07,05,15,13,34.20
2015,07,05,15,14,34.30
2015,07,05,15,15,34.30
2015,07,05,15,16,34.30
2015,07,05,15,17,34.30
2015,07,05,15,18,34.30
2015,07,05,15,19,34.40
2015,07,05,15,20,34.40
2015,07,05,15,21,34.40
2015,07,05,15,22,34.40
2015,07,05,15,23,34.40
2015,07,05,15,24,34.40
2015,07,05,15,25,34.40
2015,07,05,15,26,34.40
2015,07,05,15,27,34.30
2015,07,05,15,28,34.30
2015,07,05,15,29,34.40
2015,07,05,15,30,34.40
2015,07,05,15,31,34.40
2015,07,05,15,32,34.40
2015,07,05,15,33,34.40
2015,07,05,15,34,34.50
2015,07,05,15,35,34.50
2015,07,05,15,36,34.40
2015,07,05,15,37,34.40
2015,07,05,15,38,34.40
2015,07,05,15,39,34.40
2015,07,05,15,40,34.40
2015,07,05,15,41,34.40
2015,07,05,15,42,34.40
2015,07,05,15,43,34.40
2015,07,05,15,44,34.50
2015,07,05,15,45,34.60
2015,07,05,15,46,34.60
2015,07,05,15,47,34.60
2015,07,05,15,48,34.60
2015,07,05,15,49,34.70
2015,07,05,15,50,34.70
2015,07,05,15,51,34.70
2015,07,05,15,52,34.70
2015,07,05,15,53,34.70
2015,07,05,15,54,34.80
2015,07,05,15,55,34.80
2015,07,05,15,56,34.80
2015,07,05,15,57,34.90
2015,07,05,15,58,34.90
2015,07,05,15,59,34.90
2015,07,05,16,00,34.90
2015,07,05,16,01,34.90
2015,07,05,16,02,34.90
2015,07,05,16,03,35.00
2015,07,05,16,04,34.90
2015,07,05,16,05,34.90
2015,07,05,16,06,34.80
2015,07,05,16,07,34.70
2015,07,05,16,08,34.60
2015,07,05,16,09,34.50
2015,07,05,16,10,34.50
2015,07,05,16,11,34.50
2015,07,05,16,12,34.50
2015,07,05,16,13,34.50
2015,07,05,16,14,34.50
2015,07,05,16,15,34.50
2015,07,05,16,16,34.50
2015,07,05,16,17,34.50
2015,07,05,16,18,34.50
2015,07,05,16,19,34.50
2015,07,05,16,20,34.50
2015,07,05,16,21,34.50
2015,07,05,16,22,34.40
2015,07,05,16,23,34.40
2015,07,05,16,24,34.40
2015,07,05,16,25,34.40
2015,07,05,16,26,34.30
2015,07,05,16,27,34.20
2015,07,05,16,28,34.10
2015,07,05,16,29,34.10
2015,07,05,16,30,34.10
2015,07,05,16,31,34.00
2015,07,05,16,32,33.90
2015,07,05,16,33,33.80
2015,07,05,16,34,33.70
2015,07,05,16,35,33.70
2015,07,05,16,36,33.70
2015,07,05,16,37,33.70
2015,07,05,16,38,33.70
2015,07,05,16,39,33.70
2015,07,05,16,40,33.60
2015,07,05,16,41,33.50
2015,07,05,16,42,33.40
2015,07,05,16,43,33.30
2015,07,05,16,44,33.30
2015,07,05,16,45,33.30
2015,07,05,16,46,33.30
2015,07,05,16,47,33.20
2015,07,05,16,48,33.20
2015,07,05,16,49,33.20
2015,07,05,16,50,33.20
2015,07,05,16,51,33.20
2015,07,05,16,52,33.20
2015,07,05,16,53,33.30
2015,07,05,16,54,33.30
2015,07,05,16,55,33.30
2015,07,05,16,56,33.30
2015,07,05,16,57,33.30
2015,07,05,16,58,33.40
2015,07,05,16,59,33.30
2015,07,05,17,00,33.40
2015,07,05,17,01,33.40
2015,07,05,17,02,33.40
2015,07,05,17,03,33.40
2015,07,05,17,04,33.50
2015,07,05,17,05,33.50
2015,07,05,17,06,33.50
2015,07,05,17,07,33.50
2015,07,05,17,08,33.40
2015,07,05,17,09,33.40
2015,07,05,17,10,33.30
2015,07,05,17,11,33.30
2015,07,05,17,12,33.30
2015,07,05,17,13,33.20
2015,07,05,17,14,33.20
2015,07,05,17,15,33.10
2015,07,05,17,16,33.10
2015,07,05,17,17,33.10
2015,07,05,17,18,33.10
2015,07,05,17,19,33.10